Location: Lourdes
(43.1000°N, 0.0500°W)
Time: 05:05:51
(UTC+00:00)

USA 281 - Pass Details

Date: 30 November 2020
Orbit: 1074 x 1084 km, 106.0° (Epoch: 25 January)

Event Time Altitude Azimuth Distance (km) Brightness Sun altitude
Rises 18:08:38 0° 137° (SE) 3,858 5.8 -18.1°
Reaches altitude 10° 18:11:11 10° 133° (SE) 2,905 5.2 -18.6°
Maximum altitude 18:17:28 52° 59° (ENE) 1,310 3.3 -19.7°
Drops below altitude 10° 18:23:46 10° 345° (NNW) 2,919 5.5 -20.8°
Sets 18:26:21 0° 341° (NNW) 3,879 6.2 -21.3°
